STARLINK-38323, 100518

Orbit data source: Space-Track

STARLINK-38323, 100518 is a payload satellite owned by SpaceX/Seattle (US) in LEO that was launched on Wed, 26 Aug 2026 UTC launched from the Air Force Western Test Range (AFWTR). Payload-class satellites include a variety of spacecraft equipped with specific instruments for various scientific and technological missions. These include communications satellites like Starlink; space stations such as the ISS; scientific satellites like the Hubble; Earth observation satellites from companies like Planet Labs, Umbra, and HawkEye 360; GPS; miniature CubeSats for education and research; and military/defense satellites.

Loading next visibility...
Identifier
100518, 2026-197S
Orbit
LEO
Country
Flag of USUS
Related business
Manufacturer
SpaceX/Seattle
Mission
Operational spacecraft
Bus & Motor
STARLINK V2MO, Unknown motor
Mass
575 kg wet, ~530 kg dry
Launch date (UTC)
2026-08-26 (2 weeks ago)
Launch vehicle
Unknown
Launch site
Air Force Western Test Range (AFWTR)
Object type
Payload
Rocket body
Debris
Shape & HBR
BOX + PAN, 17.7 m
Radar Cross Section
RCS unknown

Expand to show TLE details & history
Last TLE update: 12 hours ago

TLE from 12 hours ago
0 STARLINK-38323
1 A0518U 26197S   26251.24470903  .00292803  00000-0  13717-2 0  9999
2 A0518  69.9990 156.6235 0003601 275.9356  84.1435 15.82272052  2059
Epoch: 2026-09-08T05:52Z
TLE epoch observation values (Epoch: 2026-09-08T05:52:22.860Z)
Latitude
-0.00005°
Longitude
81.21433°
Altitude
326.285 km
Speed
7.713 km/s
True Right ascension
10h 26m 29s
True Declination
0° 00' 00"
Sunlit
Object was in daylight at epoch
Visualization orbit readout
Latitude
Unknown
Longitude
Unknown
Altitude
Unknown
Speed
Unknown
Apparent Right ascension
Unknown
Apparent Declination
Unknown
Sunlit
N/A
Visualization observer readout
Local Sidereal Time
10:15:24
Azimuth
Unknown
Elevation
Unknown
Doppler factor
Unknown
Orbital elements
Apogee altitude
324.302 km
Perigee altitude
319.476 km
Semi-major axis
6,700.026 km
Eccentricity
0.00036
Inclination
69.999°
RAAN
156.6235°
Arg. of periapsis
275.9356°
True anomaly
84.18455°
Mean anomaly
84.1435°
Eccentric anomaly
84.16403°
Mean motion
3.95757 °/min
Orbital period
90.96 mins
BSTAR
0.0013717
Loading maneuver chart data...
Computing Atmospheric mass density...
Loading historical data...
Loading historical data...
Loading historical data...
Loading historical data...
Loading historical data...
Loading historical data...
Loading historical data...

Documentation

Showing up to 5 results
|